Flag for Germany Weather past 2 weeks in Titisee-Neustadt, Baden-Württemberg, Germany

Now
63 °F

Overcast.


Feels Like: 63 °F
Forecast: 39 / 51 °F
Wind: 2 mph from Southwest

Location: Freiburg

Current Time: Sep 5, 2015 at 4:46:22 PM

Latest Report: Sep 5, 2015 at 4:00 PM


Visibility: 44 mi

Pressure: 30.08 "Hg (27.34 "Hg at 813m altitude)

Humidity: 46%

Dew point: 42 °F

Location of Titisee-NeustadtLocation

Historic Weather in Titisee-Neustadt — Graph

°F

Titisee-Neustadt temperature yesterday

Maximum temperature yesterday: 70 °F (at 4:00 PM)
Minimum temperature yesterday: 50 °F (at 7:00 AM)
Average temperature yesterday: 60 °F

Past Weeks' High & Low Weather Summary

 TemperatureHumidityPressure
High94 °F (Aug 30, 5:00 PM)99% (Aug 24, 6:00 AM)30.18 "Hg (Aug 24, 6:00 AM)
Low45 °F (Sep 5, 7:00 AM)23% (Aug 30, 3:00 PM)29.68 "Hg (Aug 24, 1:00 PM)
Average68 °F64%29.98 "Hg
* Reported Aug 21 4:00 PM — Sep 5 4:00 PM, Titisee-Neustadt, Weather by CustomWeather, © 2015

Note: Actual official high and low records may vary slightly from our data, if they occured in-between our weather recording intervals... More about our weather records

Advertising

Titisee-Neustadt weather history for previous 24 hours

 ConditionsComfort  
Time TempWeatherWind HumidityBarometerVisibility
4:00 PM
Sat, Sep 5
63 °FOvercast.2 mph46%30.08 "Hg43 mi
2:00 PM64 °FOvercast.2 mph50%30.08 "Hg43 mi
1:00 PM63 °FPartly sunny.2 mph51%30.08 "Hg43 mi
12:00 PM62 °FOvercast.2 mph56%30.09 "Hg40 mi
10:00 AM57 °FScattered clouds.2 mph64%30.09 "Hg43 mi
9:00 AM52 °FOvercast.2 mph79%30.09 "Hg31 mi
7:00 AM45 °FOvercast.1 mph92%30.08 "Hg31 mi
6:00 AM45 °FOvercast.1 mph94%30.06 "Hg37 mi
4:00 AM45 °FPassing clouds.No wind91%30.06 "Hg40 mi
3:00 AM46 °FClear.1 mph92%30.06 "Hg37 mi
2:00 AMN/APassing clouds.101 mphN/AN/A1 mi
1:00 AM52 °FOvercast.No wind79%30.05 "Hg43 mi
11:00 PM
Fri, Sep 4
56 °FOvercast.1 mph68%30.03 "Hg43 mi
10:00 PM59 °FOvercast.1 mph58%30.03 "Hg43 mi
9:00 PM61 °FOvercast.2 mph52%30.00 "Hg43 mi
7:00 PM65 °FPassing clouds.6 mph44%29.97 "Hg28 mi
6:00 PM68 °FPassing clouds.5 mph40%29.95 "Hg40 mi
4:00 PM70 °FOvercast.5 mph31%29.96 "Hg43 mi
Weather by CustomWeather, © 2015

See weather overviewHow to use our weather pages